Orbital Elements at Epoch 2459200.5 (2020-Dec-17.0) TDB
Reference: JPL 32 (heliocentric ecliptic J2000)
Element | Value | Uncertainty (1-sigma) | Units |
e | .1023828791829154 | 2.8659e-08 | |
a | 2.52423415687571 | 8.8517e-09 | au |
q | 2.265795796162915 | 7.3676e-08 | au |
i | 4.637524288722355 | 3.9112e-06 | deg |
node | 188.0862758930218 | 4.2454e-05 | deg |
peri | 318.5304377624219 | 4.7782e-05 | deg |
M | 12.88317662444582 | 2.2288e-05 | deg |
tp | 2459148.078029019912 (2020-Oct-25.57802902) | 9.0621e-05 | TDB |
period | 1464.84908986051 4.01 | 7.7052e-06 2.11e-08 | d yr |
n | .2457591041233339 | 1.2927e-09 | deg/d |
Q | 2.782672517588503 | 9.758e-09 | au |
|
| | Orbit Determination Parameters
Additional Information
|